Oklahoma City, OK

7:18 AM CDT on September 19, 2017 (GMT -0500)
Will Rogers World

Weather History for KOKC - October, 2013

Change the Weather History Date:

Thursday, October 24, 2013

  Actual Average Record
Temperature  
Mean Temperature 54 °F 60 °F  
Max Temperature 62 °F 71 °F 91 °F (2003)
Min Temperature 45 °F 49 °F 30 °F (1995)
Degree Days  
Heating Degree Days 11 6  
Month to date heating degree days 122 92  
Since 1 July heating degree days 125 111  
Cooling Degree Days 0 1  
Month to date cooling degree days 71 60  
Year to date cooling degree days 2056 2085  
Growing Degree Days 5 (Base 50)    
Moisture  
Dew Point 39 °F    
Average Humidity 63    
Maximum Humidity 86    
Minimum Humidity 39    
Precipitation  
Precipitation 0.00 in 0.11 in 1.41 in (1920)
Month to date precipitation 2.95 2.93  
Year to date precipitation 50.09 31.88  
Snow  
Snow 0.00 in 0.00 in 0.00 in ()
Month to date snowfall 0.0 0.0  
Since 1 July snowfall 0.0 0.0  
Snow Depth -    
Sea Level Pressure  
Sea Level Pressure 30.25 in    
Wind  
Wind Speed 11 mph (NE)    
Max Wind Speed 24 mph    
Max Gust Speed 30 mph    
Visibility 10 miles    
Events      
T = Trace of Precipitation, MM = Missing Value Source: NWS Daily Summary

Daily Weather History Graph

Daily Weather History Graph

Search for Another Location

Airport or City:

Trip Planner

Search our weather history database for the weather conditions in past years. The results will help you decide how hot, cold, wet, or windy it might be!

Date:

Astronomy

Oct. 24, 2013 Rise Set
Actual Time 7:44 AM CDT 6:43 PM CDT
Civil Twilight 7:18 AM CDT 7:09 PM CDT
Nautical Twilight 6:49 AM CDT 7:39 PM CDT
Astronomical Twilight 6:19 AM CDT 8:08 PM CDT
Moon 11:13 PM CDT (10/24) 12:42 PM CDT (10/24)
Length of Visible Light 11h 50m
Length of Day
10h 58m
Waning Gibbous, 71% of the Moon is Illuminated
Oct 24
Waning Gibbous
Oct 26
Last Quarter
Nov 3
New
Nov 9
First Quarter
Nov 17
Full

Hourly Weather History & Observations

Time (CDT) Temp. Dew Point Humidity Pressure Visibility Wind Dir Wind Speed Gust Speed Precip Events Conditions
12:52 AM 59.0 °F 46.9 °F 64% 30.06 in 10.0 mi NNE 11.5 mph - N/A   Clear
1:52 AM 57.0 °F 46.0 °F 67% 30.08 in 10.0 mi NNE 6.9 mph - N/A   Clear
2:52 AM 54.0 °F 45.0 °F 72% 30.10 in 10.0 mi NE 3.5 mph - N/A   Clear
3:52 AM 52.0 °F 44.1 °F 74% 30.10 in 10.0 mi North 3.5 mph - N/A   Clear
4:52 AM 51.1 °F 45.0 °F 80% 30.12 in 10.0 mi North 8.1 mph - N/A   Clear
5:52 AM 48.9 °F 44.1 °F 83% 30.15 in 10.0 mi North 9.2 mph - N/A   Clear
6:52 AM 50.0 °F 43.0 °F 77% 30.20 in 10.0 mi NNE 15.0 mph - N/A   Clear
7:52 AM 48.9 °F 39.9 °F 71% 30.23 in 10.0 mi NE 13.8 mph - N/A   Partly Cloudy
8:52 AM 50.0 °F 39.0 °F 66% 30.28 in 10.0 mi NNE 13.8 mph 24.2 mph N/A   Scattered Clouds
9:52 AM 52.0 °F 37.0 °F 57% 30.30 in 10.0 mi NE 21.9 mph - N/A   Scattered Clouds
10:52 AM 55.0 °F 37.0 °F 51% 30.32 in 10.0 mi NE 16.1 mph 24.2 mph N/A   Scattered Clouds
11:52 AM 57.0 °F 37.9 °F 49% 30.33 in 10.0 mi NNE 13.8 mph - N/A   Scattered Clouds
12:52 PM 57.9 °F 36.0 °F 44% 30.33 in 10.0 mi ENE 16.1 mph - N/A   Scattered Clouds
1:52 PM 60.1 °F 36.0 °F 41% 30.30 in 10.0 mi NE 12.7 mph - N/A   Scattered Clouds
2:52 PM 61.0 °F 35.1 °F 38% 30.29 in 10.0 mi NE 13.8 mph - N/A   Scattered Clouds
3:52 PM 61.0 °F 35.1 °F 38% 30.29 in 10.0 mi NE 10.4 mph - N/A   Clear
4:52 PM 61.0 °F 36.0 °F 39% 30.28 in 10.0 mi NE 13.8 mph - N/A   Partly Cloudy
5:52 PM 59.0 °F 35.1 °F 41% 30.29 in 10.0 mi NE 12.7 mph - N/A   Partly Cloudy
6:52 PM 55.0 °F 35.1 °F 47% 30.30 in 10.0 mi ENE 8.1 mph - N/A   Partly Cloudy
7:52 PM 53.1 °F 35.1 °F 50% 30.32 in 10.0 mi ENE 9.2 mph - N/A   Partly Cloudy
8:52 PM 51.1 °F 35.1 °F 54% 30.33 in 10.0 mi ENE 9.2 mph - N/A   Partly Cloudy
9:52 PM 50.0 °F 35.1 °F 57% 30.36 in 10.0 mi ENE 8.1 mph - N/A   Clear
10:52 PM 48.0 °F 34.0 °F 58% 30.38 in 10.0 mi ENE 8.1 mph - N/A   Clear
11:52 PM 46.9 °F 33.1 °F 59% 30.38 in 10.0 mi NE 10.4 mph - N/A   Clear